• In Uzbekistan
  • List of Countries
  • For 7 days
  • Water Temperature
  • Satellite Maps
  • Weather Map
  • Weather Widgets
  • user-avatar
    Login

    Hourly Weather Erd

    Today, 16 December, Saturday

    Time Temperature Precipitation Wind Pressure Humidity
    00:00 +3°C° 1.1 mm 4 mps 739 mmHg 75%
    01:00 +3°C° 0 mm 4 mps 739 mmHg 76%
    02:00 +3°C° 0.6 mm 4 mps 739 mmHg 76%
    03:00 +3°C° 0.6 mm 4 mps 739 mmHg 77%
    04:00 +3°C° 0.6 mm 4 mps 739 mmHg 77%
    05:00 +3°C° 0.3 mm 4 mps 739 mmHg 77%
    06:00 +1°C° 0.3 mm 4 mps 740 mmHg 77%
    07:00 +2°C° 0 mm 3 mps 740 mmHg 83%
    08:00 +2°C° 0.3 mm 3 mps 741 mmHg 80%
    09:00 +2°C° 0.3 mm 3 mps 742 mmHg 78%
    10:00 +3°C° 0.3 mm 4 mps 742 mmHg 75%
    11:00 +3°C° 0.1 mm 4 mps 743 mmHg 74%
    12:00 +3°C° 0.1 mm 4 mps 744 mmHg 72%
    13:00 +4°C° 0.1 mm 4 mps 744 mmHg 70%
    14:00 +3°C° 0 mm 4 mps 745 mmHg 72%
    15:00 +3°C° 0 mm 3 mps 746 mmHg 75%
    16:00 +3°C° 0 mm 3 mps 746 mmHg 77%
    17:00 +2°C° 0 mm 3 mps 747 mmHg 79%
    18:00 +2°C° 0 mm 2 mps 747 mmHg 81%
    19:00 +2°C° 0 mm 2 mps 748 mmHg 83%
    20:00 +2°C° 0 mm 2 mps 748 mmHg 84%
    21:00 +1°C° 0 mm 2 mps 749 mmHg 84%
    22:00 +1°C° 0 mm 2 mps 749 mmHg 85%
    23:00 +1°C° 0 mm 2 mps 750 mmHg 85%

    Tomorrow, 17 December, Sunday

    Time Temperature Precipitation Wind Pressure Humidity
    00:00 +1°C° 0 mm 2 mps 750 mmHg 86%
    01:00 +1°C° 0 mm 2 mps 751 mmHg 86%
    02:00 +1°C° 0 mm 2 mps 751 mmHg 86%
    03:00 -1°C° 0 mm 2 mps 751 mmHg 86%
    04:00 -1°C° 0 mm 2 mps 751 mmHg 86%
    05:00 -1°C° 0 mm 2 mps 752 mmHg 86%
    06:00 -1°C° 0 mm 2 mps 752 mmHg 86%
    07:00 -1°C° 0 mm 2 mps 752 mmHg 86%
    08:00 0°C° 0 mm 3 mps 753 mmHg 83%
    09:00 0°C° 0 mm 3 mps 753 mmHg 80%
    10:00 +1°C° 0 mm 3 mps 754 mmHg 77%
    11:00 +2°C° 0 mm 3 mps 754 mmHg 75%
    12:00 +2°C° 0 mm 3 mps 754 mmHg 72%
    13:00 +3°C° 0 mm 3 mps 754 mmHg 70%
    14:00 +2°C° 0 mm 3 mps 754 mmHg 73%
    15:00 +1°C° 0 mm 3 mps 754 mmHg 76%
    16:00 +2°C° 0 mm 2 mps 754 mmHg 79%
    17:00 +1°C° 0 mm 2 mps 755 mmHg 80%
    18:00 +1°C° 0 mm 2 mps 755 mmHg 81%
    19:00 +1°C° 0 mm 2 mps 755 mmHg 82%
    20:00 +1°C° 0 mm 2 mps 756 mmHg 83%
    21:00 -1°C° 0 mm 2 mps 756 mmHg 83%
    22:00 -1°C° 0 mm 2 mps 756 mmHg 83%
    23:00 -1°C° 0 mm 2 mps 756 mmHg 84%

    Day after tomorrow, 18 December, Monday

    Time Temperature Precipitation Wind Pressure Humidity
    00:00 -1°C° 0 mm 3 mps 757 mmHg 85%
    01:00 -1°C° 0 mm 3 mps 757 mmHg 86%
    02:00 -1°C° 0 mm 3 mps 757 mmHg 86%
    03:00 -1°C° 0 mm 3 mps 757 mmHg 87%
    04:00 -1°C° 0 mm 2 mps 757 mmHg 87%
    05:00 -2°C° 0 mm 2 mps 757 mmHg 87%
    06:00 -2°C° 0 mm 2 mps 757 mmHg 87%
    07:00 -2°C° 0 mm 2 mps 758 mmHg 87%
    08:00 -1°C° 0 mm 2 mps 758 mmHg 84%
    09:00 -1°C° 0 mm 2 mps 758 mmHg 80%
    10:00 +1°C° 0 mm 2 mps 758 mmHg 77%
    11:00 +2°C° 0 mm 2 mps 758 mmHg 74%
    12:00 +2°C° 0 mm 2 mps 758 mmHg 70%
    13:00 +3°C° 0 mm 2 mps 757 mmHg 67%
    14:00 +2°C° 0 mm 2 mps 757 mmHg 71%
    15:00 +1°C° 0 mm 2 mps 758 mmHg 74%
    16:00 +1°C° 0 mm 1 mps 758 mmHg 78%
    17:00 +1°C° 0 mm 1 mps 758 mmHg 78%
    18:00 +1°C° 0 mm 1 mps 759 mmHg 79%
    19:00 +1°C° 0 mm 1 mps 759 mmHg 80%
    20:00 +1°C° 0 mm 1 mps 759 mmHg 79%
    21:00 0°C° 0 mm 1 mps 760 mmHg 79%
    22:00 0°C° 0 mm 1 mps 760 mmHg 79%
    23:00 0°C° 0 mm 1 mps 761 mmHg 79%

    19 December, Tuesday

    Time Temperature Precipitation Wind Pressure Humidity
    00:00 0°C° 0 mm 1 mps 761 mmHg 79%
    01:00 0°C° 0 mm 1 mps 761 mmHg 79%
    02:00 0°C° 0 mm 1 mps 761 mmHg 78%
    03:00 0°C° 0 mm 1 mps 761 mmHg 78%
    04:00 0°C° 0 mm 1 mps 761 mmHg 78%
    05:00 0°C° 0 mm 1 mps 762 mmHg 78%
    06:00 0°C° 0 mm 1 mps 762 mmHg 78%
    07:00 -3°C° 0 mm 2 mps 763 mmHg 78%
    08:00 -2°C° 0 mm 2 mps 763 mmHg 75%
    09:00 -1°C° 0 mm 2 mps 764 mmHg 71%
    10:00 +1°C° 0 mm 2 mps 764 mmHg 67%
    11:00 +1°C° 0 mm 2 mps 764 mmHg 65%
    12:00 +2°C° 0 mm 2 mps 764 mmHg 63%
    13:00 +2°C° 0 mm 2 mps 764 mmHg 61%
    14:00 +1°C° 0 mm 2 mps 764 mmHg 66%
    15:00 +1°C° 0 mm 2 mps 764 mmHg 71%
    16:00 -1°C° 0 mm 2 mps 764 mmHg 77%
    17:00 -1°C° 0 mm 2 mps 764 mmHg 79%
    18:00 -2°C° 0 mm 2 mps 764 mmHg 82%
    19:00 0°C° 0 mm 1 mps 764 mmHg 84%
    20:00 -2°C° 0 mm 2 mps 764 mmHg 86%
    21:00 -2°C° 0 mm 2 mps 764 mmHg 87%
    22:00 -2°C° 0 mm 2 mps 764 mmHg 89%
    23:00 -2°C° 0.1 mm 2 mps 764 mmHg 89%

    20 December, Wednesday

    Time Temperature Precipitation Wind Pressure Humidity
    00:00 -1°C° 0.1 mm 2 mps 763 mmHg 90%
    01:00 -1°C° 0.1 mm 2 mps 763 mmHg 90%
    02:00 -1°C° 0.1 mm 3 mps 762 mmHg 90%
    03:00 0°C° 0.1 mm 3 mps 762 mmHg 90%
    04:00 0°C° 0.1 mm 3 mps 761 mmHg 90%
    05:00 -1°C° 0.5 mm 4 mps 761 mmHg 89%
    06:00 -1°C° 0.5 mm 4 mps 760 mmHg 89%
    07:00 0°C° 0.5 mm 4 mps 760 mmHg 89%
    08:00 0°C° 0.7 mm 4 mps 760 mmHg 90%
    09:00 0°C° 0.7 mm 4 mps 760 mmHg 91%
    10:00 0°C° 0.7 mm 4 mps 760 mmHg 91%
    11:00 0°C° 0.3 mm 4 mps 759 mmHg 91%
    12:00 +1°C° 0.3 mm 4 mps 759 mmHg 91%
    13:00 +1°C° 0.3 mm 4 mps 759 mmHg 91%
    14:00 +1°C° 0.2 mm 4 mps 759 mmHg 92%
    15:00 +1°C° 0.2 mm 3 mps 759 mmHg 93%
    16:00 +1°C° 0.2 mm 3 mps 759 mmHg 94%
    17:00 +2°C° 0.5 mm 2 mps 759 mmHg 94%
    18:00 +2°C° 0.5 mm 2 mps 760 mmHg 94%
    19:00 +1°C° 0.5 mm 2 mps 760 mmHg 95%
    20:00 +1°C° 0.6 mm 2 mps 760 mmHg 95%
    21:00 +1°C° 0.6 mm 2 mps 761 mmHg 95%
    22:00 +2°C° 0.6 mm 1 mps 761 mmHg 96%
    23:00 +2°C° 0.4 mm 1 mps 761 mmHg 96%

    21 December, Thursday

    Time Temperature Precipitation Wind Pressure Humidity
    00:00 +1°C° 0.4 mm 1 mps 761 mmHg 96%
    01:00 +1°C° 0.4 mm 1 mps 761 mmHg 96%
    02:00 +1°C° 0.6 mm 1 mps 761 mmHg 96%
    03:00 +1°C° 0.6 mm 1 mps 761 mmHg 96%
    04:00 +1°C° 0.6 mm 1 mps 762 mmHg 97%
    05:00 +2°C° 0.5 mm 1 mps 762 mmHg 97%
    06:00 +2°C° 0.5 mm 1 mps 762 mmHg 97%
    07:00 +2°C° 0.5 mm 1 mps 762 mmHg 97%
    08:00 +1°C° 0.1 mm 2 mps 762 mmHg 97%
    09:00 +2°C° 0.1 mm 2 mps 762 mmHg 97%
    10:00 +2°C° 0.1 mm 2 mps 762 mmHg 98%
    11:00 +3°C° 0.1 mm 2 mps 762 mmHg 98%
    12:00 +4°C° 0.1 mm 2 mps 762 mmHg 98%
    13:00 +3°C° 0.1 mm 3 mps 761 mmHg 98%
    14:00 +4°C° 0.4 mm 3 mps 761 mmHg 97%
    15:00 +4°C° 0.4 mm 3 mps 761 mmHg 97%
    16:00 +4°C° 0.4 mm 4 mps 761 mmHg 96%
    17:00 +4°C° 0.3 mm 4 mps 761 mmHg 95%
    18:00 +5°C° 0.3 mm 5 mps 761 mmHg 94%
    19:00 +5°C° 0.3 mm 5 mps 761 mmHg 93%
    20:00 +4°C° 0.1 mm 6 mps 761 mmHg 91%
    21:00 +4°C° 0.1 mm 6 mps 760 mmHg 90%
    22:00 +5°C° 0.1 mm 6 mps 760 mmHg 88%
    23:00 +5°C° 0 mm 6 mps 760 mmHg 87%
    Show more